Year,Month,Day,Hour,Minute,Value (Times are PST for temperature in C)
2016,09,22,00,00,9.00
2016,09,22,00,01,9.00
2016,09,22,00,02,9.00
2016,09,22,00,03,9.10
2016,09,22,00,04,9.10
2016,09,22,00,05,9.10
2016,09,22,00,06,9.10
2016,09,22,00,07,9.10
2016,09,22,00,08,9.00
2016,09,22,00,09,9.00
2016,09,22,00,10,9.00
2016,09,22,00,11,9.00
2016,09,22,00,12,9.00
2016,09,22,00,13,9.00
2016,09,22,00,14,9.00
2016,09,22,00,15,9.00
2016,09,22,00,16,9.00
2016,09,22,00,17,9.00
2016,09,22,00,18,9.00
2016,09,22,00,19,9.00
2016,09,22,00,20,9.00
2016,09,22,00,21,9.00
2016,09,22,00,22,9.00
2016,09,22,00,23,9.10
2016,09,22,00,24,9.00
2016,09,22,00,25,9.00
2016,09,22,00,26,9.00
2016,09,22,00,27,9.00
2016,09,22,00,28,9.00
2016,09,22,00,29,9.00
2016,09,22,00,30,9.10
2016,09,22,00,31,9.10
2016,09,22,00,32,9.10
2016,09,22,00,33,9.10
2016,09,22,00,34,9.20
2016,09,22,00,35,9.20
2016,09,22,00,36,9.20
2016,09,22,00,37,9.20
2016,09,22,00,38,9.20
2016,09,22,00,39,9.20
2016,09,22,00,40,9.10
2016,09,22,00,41,9.10
2016,09,22,00,42,9.10
2016,09,22,00,43,9.10
2016,09,22,00,44,9.10
2016,09,22,00,45,9.00
2016,09,22,00,46,9.00
2016,09,22,00,47,9.00
2016,09,22,00,48,8.90
2016,09,22,00,49,8.90
2016,09,22,00,50,8.90
2016,09,22,00,51,8.90
2016,09,22,00,52,8.90
2016,09,22,00,53,8.80
2016,09,22,00,54,8.80
2016,09,22,00,55,8.80
2016,09,22,00,56,8.80
2016,09,22,00,57,8.70
2016,09,22,00,58,8.70
2016,09,22,00,59,8.70
2016,09,22,01,00,8.70
2016,09,22,01,01,8.70
2016,09,22,01,02,8.70
2016,09,22,01,03,8.70
2016,09,22,01,04,8.70
2016,09,22,01,05,8.70
2016,09,22,01,06,8.70
2016,09,22,01,07,8.80
2016,09,22,01,08,8.80
2016,09,22,01,09,8.80
2016,09,22,01,10,8.80
2016,09,22,01,11,8.80
2016,09,22,01,12,8.80
2016,09,22,01,13,8.70
2016,09,22,01,14,8.70
2016,09,22,01,15,8.70
2016,09,22,01,16,8.70
2016,09,22,01,17,8.70
2016,09,22,01,18,8.70
2016,09,22,01,19,8.70
2016,09,22,01,20,8.70
2016,09,22,01,21,8.70
2016,09,22,01,22,8.70
2016,09,22,01,23,8.70
2016,09,22,01,24,8.70
2016,09,22,01,25,8.70
2016,09,22,01,26,8.70
2016,09,22,01,27,8.60
2016,09,22,01,28,8.60
2016,09,22,01,29,8.60
2016,09,22,01,30,8.60
2016,09,22,01,31,8.60
2016,09,22,01,32,8.60
2016,09,22,01,33,8.50
2016,09,22,01,34,8.50
2016,09,22,01,35,8.50
2016,09,22,01,36,8.40
2016,09,22,01,37,8.40
2016,09,22,01,38,8.40
2016,09,22,01,39,8.40
2016,09,22,01,40,8.40
2016,09,22,01,41,8.40
2016,09,22,01,42,8.40
2016,09,22,01,43,8.40
2016,09,22,01,44,8.30
2016,09,22,01,45,8.30
2016,09,22,01,46,8.30
2016,09,22,01,47,8.30
2016,09,22,01,48,8.30
2016,09,22,01,49,8.20
2016,09,22,01,50,8.20
2016,09,22,01,51,8.20
2016,09,22,01,52,8.20
2016,09,22,01,53,8.20
2016,09,22,01,54,8.20
2016,09,22,01,55,8.20
2016,09,22,01,56,8.20
2016,09,22,01,57,8.10
2016,09,22,01,58,8.10
2016,09,22,01,59,8.10
2016,09,22,02,00,8.10
2016,09,22,02,01,8.10
2016,09,22,02,02,8.00
2016,09,22,02,03,8.00
2016,09,22,02,04,8.00
2016,09,22,02,05,8.00
2016,09,22,02,06,8.10
2016,09,22,02,07,8.10
2016,09,22,02,08,8.00
2016,09,22,02,09,8.00
2016,09,22,02,10,8.00
2016,09,22,02,11,8.00
2016,09,22,02,12,8.00
2016,09,22,02,13,8.00
2016,09,22,02,14,8.00
2016,09,22,02,15,8.10
2016,09,22,02,16,8.10
2016,09,22,02,17,8.10
2016,09,22,02,18,8.10
2016,09,22,02,19,8.10
2016,09,22,02,20,8.10
2016,09,22,02,21,8.10
2016,09,22,02,22,8.10
2016,09,22,02,23,8.10
2016,09,22,02,24,8.10
2016,09,22,02,25,8.00
2016,09,22,02,26,8.00
2016,09,22,02,27,8.00
2016,09,22,02,28,8.00
2016,09,22,02,29,7.90
2016,09,22,02,30,7.90
2016,09,22,02,31,7.90
2016,09,22,02,32,7.90
2016,09,22,02,33,7.80
2016,09,22,02,34,7.80
2016,09,22,02,35,7.80
2016,09,22,02,36,7.80
2016,09,22,02,37,7.80
2016,09,22,02,38,7.80
2016,09,22,02,39,7.80
2016,09,22,02,40,7.80
2016,09,22,02,41,7.80
2016,09,22,02,42,7.80
2016,09,22,02,43,7.80
2016,09,22,02,44,7.80
2016,09,22,02,45,7.80
2016,09,22,02,46,7.80
2016,09,22,02,47,7.80
2016,09,22,02,48,7.80
2016,09,22,02,49,7.80
2016,09,22,02,50,7.80
2016,09,22,02,51,7.80
2016,09,22,02,52,7.80
2016,09,22,02,53,7.80
2016,09,22,02,54,7.90
2016,09,22,02,55,7.90
2016,09,22,02,56,7.90
2016,09,22,02,57,7.90
2016,09,22,02,58,7.90
2016,09,22,02,59,7.80
2016,09,22,03,00,7.80
2016,09,22,03,01,7.80
2016,09,22,03,02,7.80
2016,09,22,03,03,7.80
2016,09,22,03,04,7.80
2016,09,22,03,05,7.80
2016,09,22,03,06,7.80
2016,09,22,03,07,7.80
2016,09,22,03,08,7.80
2016,09,22,03,09,7.80
2016,09,22,03,10,7.80
2016,09,22,03,11,7.80
2016,09,22,03,12,7.80
2016,09,22,03,13,7.80
2016,09,22,03,14,7.80
2016,09,22,03,15,7.80
2016,09,22,03,16,7.80
2016,09,22,03,17,7.80
2016,09,22,03,18,7.80
2016,09,22,03,19,7.80
2016,09,22,03,20,7.80
2016,09,22,03,21,7.80
2016,09,22,03,22,7.80
2016,09,22,03,23,7.80
2016,09,22,03,24,7.80
2016,09,22,03,25,7.80
2016,09,22,03,26,7.80
2016,09,22,03,27,7.80
2016,09,22,03,28,7.80
2016,09,22,03,29,7.80
2016,09,22,03,30,7.80
2016,09,22,03,31,7.80
2016,09,22,03,32,7.80
2016,09,22,03,33,7.80
2016,09,22,03,34,7.70
2016,09,22,03,35,7.70
2016,09,22,03,36,7.70
2016,09,22,03,37,7.70
2016,09,22,03,38,7.70
2016,09,22,03,39,7.60
2016,09,22,03,40,7.60
2016,09,22,03,41,7.60
2016,09,22,03,42,7.60
2016,09,22,03,43,7.60
2016,09,22,03,44,7.60
2016,09,22,03,45,7.50
2016,09,22,03,46,7.50
2016,09,22,03,47,7.50
2016,09,22,03,48,7.50
2016,09,22,03,49,7.50
2016,09,22,03,50,7.40
2016,09,22,03,51,7.40
2016,09,22,03,52,7.40
2016,09,22,03,53,7.40
2016,09,22,03,54,7.40
2016,09,22,03,55,7.40
2016,09,22,03,56,7.30
2016,09,22,03,57,7.30
2016,09,22,03,58,7.30
2016,09,22,03,59,7.30
2016,09,22,04,00,7.30
2016,09,22,04,01,7.30
2016,09,22,04,02,7.30
2016,09,22,04,03,7.30
2016,09,22,04,04,7.30
2016,09,22,04,05,7.20
2016,09,22,04,06,7.20
2016,09,22,04,07,7.20
2016,09,22,04,08,7.20
2016,09,22,04,09,7.20
2016,09,22,04,10,7.20
2016,09,22,04,11,7.10
2016,09,22,04,12,7.10
2016,09,22,04,13,7.10
2016,09,22,04,14,7.10
2016,09,22,04,15,7.10
2016,09,22,04,16,7.00
2016,09,22,04,17,7.00
2016,09,22,04,18,7.00
2016,09,22,04,19,7.00
2016,09,22,04,20,7.00
2016,09,22,04,21,7.00
2016,09,22,04,22,7.00
2016,09,22,04,23,7.00
2016,09,22,04,24,7.00
2016,09,22,04,25,7.00
2016,09,22,04,26,7.00
2016,09,22,04,27,7.00
2016,09,22,04,28,7.00
2016,09,22,04,29,7.00
2016,09,22,04,30,7.00
2016,09,22,04,31,6.90
2016,09,22,04,32,6.90
2016,09,22,04,33,6.90
2016,09,22,04,34,6.90
2016,09,22,04,35,6.90
2016,09,22,04,36,6.90
2016,09,22,04,37,6.90
2016,09,22,04,38,6.90
2016,09,22,04,39,6.90
2016,09,22,04,40,6.90
2016,09,22,04,41,6.90
2016,09,22,04,42,6.90
2016,09,22,04,43,6.90
2016,09,22,04,44,6.90
2016,09,22,04,45,6.90
2016,09,22,04,46,6.90
2016,09,22,04,47,6.80
2016,09,22,04,48,6.80
2016,09,22,04,49,6.80
2016,09,22,04,50,6.80
2016,09,22,04,51,6.80
2016,09,22,04,52,6.80
2016,09,22,04,53,6.80
2016,09,22,04,54,6.80
2016,09,22,04,55,6.80
2016,09,22,04,56,6.70
2016,09,22,04,57,6.70
2016,09,22,04,58,6.70
2016,09,22,04,59,6.70
2016,09,22,05,00,6.70
2016,09,22,05,01,6.70
2016,09,22,05,02,6.70
2016,09,22,05,03,6.70
2016,09,22,05,04,6.70
2016,09,22,05,05,6.70
2016,09,22,05,06,6.70
2016,09,22,05,07,6.70
2016,09,22,05,08,6.70
2016,09,22,05,09,6.70
2016,09,22,05,10,6.70
2016,09,22,05,11,6.70
2016,09,22,05,12,6.70
2016,09,22,05,13,6.70
2016,09,22,05,14,6.70
2016,09,22,05,15,6.70
2016,09,22,05,16,6.70
2016,09,22,05,17,6.70
2016,09,22,05,18,6.70
2016,09,22,05,19,6.60
2016,09,22,05,20,6.60
2016,09,22,05,21,6.60
2016,09,22,05,22,6.60
2016,09,22,05,23,6.60
2016,09,22,05,24,6.60
2016,09,22,05,25,6.60
2016,09,22,05,26,6.60
2016,09,22,05,27,6.60
2016,09,22,05,28,6.60
2016,09,22,05,29,6.60
2016,09,22,05,30,6.60
2016,09,22,05,31,6.60
2016,09,22,05,32,6.60
2016,09,22,05,33,6.60
2016,09,22,05,34,6.60
2016,09,22,05,35,6.60
2016,09,22,05,36,6.60
2016,09,22,05,37,6.60
2016,09,22,05,38,6.50
2016,09,22,05,39,6.50
2016,09,22,05,40,6.50
2016,09,22,05,41,6.50
2016,09,22,05,42,6.50
2016,09,22,05,43,6.50
2016,09,22,05,44,6.50
2016,09,22,05,45,6.50
2016,09,22,05,46,6.60
2016,09,22,05,47,6.60
2016,09,22,05,48,6.60
2016,09,22,05,49,6.60
2016,09,22,05,50,6.60
2016,09,22,05,51,6.60
2016,09,22,05,52,6.60
2016,09,22,05,53,6.60
2016,09,22,05,54,6.60
2016,09,22,05,55,6.60
2016,09,22,05,56,6.60
2016,09,22,05,57,6.60
2016,09,22,05,58,6.60
2016,09,22,05,59,6.60
2016,09,22,06,00,6.60
2016,09,22,06,01,6.60
2016,09,22,06,02,6.60
2016,09,22,06,03,6.60
2016,09,22,06,04,6.60
2016,09,22,06,05,6.60
2016,09,22,06,06,6.60
2016,09,22,06,07,6.60
2016,09,22,06,08,6.60
2016,09,22,06,09,6.60
2016,09,22,06,10,6.60
2016,09,22,06,11,6.60
2016,09,22,06,12,6.60
2016,09,22,06,13,6.50
2016,09,22,06,14,6.50
2016,09,22,06,15,6.50
2016,09,22,06,16,6.40
2016,09,22,06,17,6.40
2016,09,22,06,18,6.40
2016,09,22,06,19,6.40
2016,09,22,06,20,6.30
2016,09,22,06,21,6.30
2016,09,22,06,22,6.30
2016,09,22,06,23,6.30
2016,09,22,06,24,6.30
2016,09,22,06,25,6.30
2016,09,22,06,26,6.40
2016,09,22,06,27,6.40
2016,09,22,06,28,6.40
2016,09,22,06,29,6.40
2016,09,22,06,30,6.40
2016,09,22,06,31,6.40
2016,09,22,06,32,6.40
2016,09,22,06,33,6.40
2016,09,22,06,34,6.40
2016,09,22,06,35,6.40
2016,09,22,06,36,6.40
2016,09,22,06,37,6.40
2016,09,22,06,38,6.40
2016,09,22,06,39,6.30
2016,09,22,06,40,6.30
2016,09,22,06,41,6.30
2016,09,22,06,42,6.30
2016,09,22,06,43,6.30
2016,09,22,06,44,6.30
2016,09,22,06,45,6.30
2016,09,22,06,46,6.30
2016,09,22,06,47,6.30
2016,09,22,06,48,6.30
2016,09,22,06,49,6.20
2016,09,22,06,50,6.20
2016,09,22,06,51,6.20
2016,09,22,06,52,6.20
2016,09,22,06,53,6.20
2016,09,22,06,54,6.20
2016,09,22,06,55,6.20
2016,09,22,06,56,6.20
2016,09,22,06,57,6.10
2016,09,22,06,58,6.10
2016,09,22,06,59,6.10
2016,09,22,07,00,6.20
2016,09,22,07,01,6.20
2016,09,22,07,02,6.20
2016,09,22,07,03,6.20
2016,09,22,07,04,6.20
2016,09,22,07,05,6.20
2016,09,22,07,06,6.20
2016,09,22,07,07,6.20
2016,09,22,07,08,6.20
2016,09,22,07,09,6.20
2016,09,22,07,10,6.20
2016,09,22,07,11,6.20
2016,09,22,07,12,6.20
2016,09,22,07,13,6.20
2016,09,22,07,14,6.20
2016,09,22,07,15,6.20
2016,09,22,07,16,6.30
2016,09,22,07,17,6.30
2016,09,22,07,18,6.30
2016,09,22,07,19,6.30
2016,09,22,07,20,6.30
2016,09,22,07,21,6.30
2016,09,22,07,22,6.30
2016,09,22,07,23,6.30
2016,09,22,07,24,6.30
2016,09,22,07,25,6.30
2016,09,22,07,26,6.30
2016,09,22,07,27,6.30
2016,09,22,07,28,6.40
2016,09,22,07,29,6.40
2016,09,22,07,30,6.40
2016,09,22,07,31,6.40
2016,09,22,07,32,6.50
2016,09,22,07,33,6.50
2016,09,22,07,34,6.60
2016,09,22,07,35,6.60
2016,09,22,07,36,6.60
2016,09,22,07,37,6.70
2016,09,22,07,38,6.70
2016,09,22,07,39,6.70
2016,09,22,07,40,6.70
2016,09,22,07,41,6.70
2016,09,22,07,42,6.70
2016,09,22,07,43,6.70
2016,09,22,07,44,6.80
2016,09,22,07,45,6.80
2016,09,22,07,46,6.80
2016,09,22,07,47,6.90
2016,09,22,07,48,6.90
2016,09,22,07,49,7.00
2016,09,22,07,50,7.10
2016,09,22,07,51,7.20
2016,09,22,07,52,7.30
2016,09,22,07,53,7.50
2016,09,22,07,54,7.50
2016,09,22,07,55,7.60
2016,09,22,07,56,7.70
2016,09,22,07,57,7.70
2016,09,22,07,58,7.70
2016,09,22,07,59,7.70
2016,09,22,08,00,7.70
2016,09,22,08,01,7.70
2016,09,22,08,02,7.70
2016,09,22,08,03,7.60
2016,09,22,08,04,7.60
2016,09,22,08,05,7.60
2016,09,22,08,06,7.70
2016,09,22,08,07,7.70
2016,09,22,08,08,7.70
2016,09,22,08,09,7.80
2016,09,22,08,10,7.80
2016,09,22,08,11,7.80
2016,09,22,08,12,7.90
2016,09,22,08,13,7.90
2016,09,22,08,14,8.00
2016,09,22,08,15,8.10
2016,09,22,08,16,8.20
2016,09,22,08,17,8.20
2016,09,22,08,18,8.30
2016,09,22,08,19,8.50
2016,09,22,08,20,8.70
2016,09,22,08,21,8.80
2016,09,22,08,22,9.00
2016,09,22,08,23,9.10
2016,09,22,08,24,9.20
2016,09,22,08,25,9.30
2016,09,22,08,26,9.50
2016,09,22,08,27,9.60
2016,09,22,08,28,9.70
2016,09,22,08,29,9.80
2016,09,22,08,30,9.90
2016,09,22,08,31,9.90
2016,09,22,08,32,10.00
2016,09,22,08,33,10.10
2016,09,22,08,34,10.20
2016,09,22,08,35,10.40
2016,09,22,08,36,10.50
2016,09,22,08,37,10.60
2016,09,22,08,38,10.60
2016,09,22,08,39,10.70
2016,09,22,08,40,10.80
2016,09,22,08,41,10.90
2016,09,22,08,42,11.00
2016,09,22,08,43,11.00
2016,09,22,08,44,11.20
2016,09,22,08,45,11.30
2016,09,22,08,46,11.30
2016,09,22,08,47,11.40
2016,09,22,08,48,11.40
2016,09,22,08,49,11.50
2016,09,22,08,50,11.50
2016,09,22,08,51,11.60
2016,09,22,08,52,11.70
2016,09,22,08,53,11.80
2016,09,22,08,54,12.00
2016,09,22,08,55,12.10
2016,09,22,08,56,12.10
2016,09,22,08,57,12.20
2016,09,22,08,58,12.20
2016,09,22,08,59,12.20
2016,09,22,09,00,12.30
2016,09,22,09,01,12.30
2016,09,22,09,02,12.30
2016,09,22,09,03,12.30
2016,09,22,09,04,12.30
2016,09,22,09,05,12.20
2016,09,22,09,06,12.10
2016,09,22,09,07,12.00
2016,09,22,09,08,11.90
2016,09,22,09,09,11.80
2016,09,22,09,10,11.70
2016,09,22,09,11,11.70
2016,09,22,09,12,11.60
2016,09,22,09,13,11.60
2016,09,22,09,14,11.60
2016,09,22,09,15,11.60
2016,09,22,09,16,11.60
2016,09,22,09,17,11.60
2016,09,22,09,18,11.60
2016,09,22,09,19,11.70
2016,09,22,09,20,11.70
2016,09,22,09,21,11.80
2016,09,22,09,22,11.90
2016,09,22,09,23,12.10
2016,09,22,09,24,12.20
2016,09,22,09,25,12.20
2016,09,22,09,26,12.30
2016,09,22,09,27,12.30
2016,09,22,09,28,12.40
2016,09,22,09,29,12.40
2016,09,22,09,30,12.40
2016,09,22,09,31,12.40
2016,09,22,09,32,12.50
2016,09,22,09,33,12.50
2016,09,22,09,34,12.50
2016,09,22,09,35,12.60
2016,09,22,09,36,12.60
2016,09,22,09,37,12.60
2016,09,22,09,38,12.70
2016,09,22,09,39,12.70
2016,09,22,09,40,12.80
2016,09,22,09,41,12.80
2016,09,22,09,42,12.80
2016,09,22,09,43,12.80
2016,09,22,09,44,12.70
2016,09,22,09,45,12.60
2016,09,22,09,46,12.50
2016,09,22,09,47,12.50
2016,09,22,09,48,12.40
2016,09,22,09,49,12.50
2016,09,22,09,50,12.50
2016,09,22,09,51,12.60
2016,09,22,09,52,12.70
2016,09,22,09,53,12.80
2016,09,22,09,54,12.90
2016,09,22,09,55,13.00
2016,09,22,09,56,13.00
2016,09,22,09,57,13.10
2016,09,22,09,58,13.10
2016,09,22,09,59,13.10
2016,09,22,10,00,13.00
2016,09,22,10,01,13.00
2016,09,22,10,02,12.90
2016,09,22,10,03,12.80
2016,09,22,10,04,12.80
2016,09,22,10,05,12.80
2016,09,22,10,06,12.80
2016,09,22,10,07,12.70
2016,09,22,10,08,12.60
2016,09,22,10,09,12.60
2016,09,22,10,10,12.50
2016,09,22,10,11,12.40
2016,09,22,10,12,12.30
2016,09,22,10,13,12.30
2016,09,22,10,14,12.30
2016,09,22,10,15,12.30
2016,09,22,10,16,12.30
2016,09,22,10,17,12.40
2016,09,22,10,18,12.40
2016,09,22,10,19,12.50
2016,09,22,10,20,12.60
2016,09,22,10,21,12.70
2016,09,22,10,22,12.70
2016,09,22,10,23,12.60
2016,09,22,10,24,12.70
2016,09,22,10,25,12.70
2016,09,22,10,26,12.70
2016,09,22,10,27,12.70
2016,09,22,10,28,12.70
2016,09,22,10,29,12.70
2016,09,22,10,30,12.70
2016,09,22,10,31,12.60
2016,09,22,10,32,12.50
2016,09,22,10,33,12.50
2016,09,22,10,34,12.50
2016,09,22,10,35,12.50
2016,09,22,10,36,12.50
2016,09,22,10,37,12.40
2016,09,22,10,38,12.40
2016,09,22,10,39,12.40
2016,09,22,10,40,12.40
2016,09,22,10,41,12.40
2016,09,22,10,42,12.50
2016,09,22,10,43,12.60
2016,09,22,10,44,12.70
2016,09,22,10,45,12.90
2016,09,22,10,46,13.10
2016,09,22,10,47,13.20
2016,09,22,10,48,13.30
2016,09,22,10,49,13.40
2016,09,22,10,50,13.40
2016,09,22,10,51,13.40
2016,09,22,10,52,13.40
2016,09,22,10,53,13.30
2016,09,22,10,54,13.20
2016,09,22,10,55,13.20
2016,09,22,10,56,13.20
2016,09,22,10,57,13.30
2016,09,22,10,58,13.40
2016,09,22,10,59,13.40
2016,09,22,11,00,13.30
2016,09,22,11,01,13.30
2016,09,22,11,02,13.30
2016,09,22,11,03,13.20
2016,09,22,11,04,13.20
2016,09,22,11,05,13.20
2016,09,22,11,06,13.20
2016,09,22,11,07,13.20
2016,09,22,11,08,13.30
2016,09,22,11,09,13.30
2016,09,22,11,10,13.30
2016,09,22,11,11,13.40
2016,09,22,11,12,13.40
2016,09,22,11,13,13.50
2016,09,22,11,14,13.50
2016,09,22,11,15,13.50
2016,09,22,11,16,13.60
2016,09,22,11,17,13.60
2016,09,22,11,18,13.60
2016,09,22,11,19,13.50
2016,09,22,11,20,13.40
2016,09,22,11,21,13.40
2016,09,22,11,22,13.30
2016,09,22,11,23,13.30
2016,09,22,11,24,13.30
2016,09,22,11,25,13.40
2016,09,22,11,26,13.40
2016,09,22,11,27,13.50
2016,09,22,11,28,13.40
2016,09,22,11,29,13.40
2016,09,22,11,30,13.40
2016,09,22,11,31,13.50
2016,09,22,11,32,13.50
2016,09,22,11,33,13.50
2016,09,22,11,34,13.50
2016,09,22,11,35,13.40
2016,09,22,11,36,13.40
2016,09,22,11,37,13.40
2016,09,22,11,38,13.40
2016,09,22,11,39,13.50
2016,09,22,11,40,13.50
2016,09,22,11,41,13.40
2016,09,22,11,42,13.40
2016,09,22,11,43,13.40
2016,09,22,11,44,13.50
2016,09,22,11,45,13.60
2016,09,22,11,46,13.60
2016,09,22,11,47,13.50
2016,09,22,11,48,13.60
2016,09,22,11,49,13.50
2016,09,22,11,50,13.60
2016,09,22,11,51,13.60
2016,09,22,11,52,13.70
2016,09,22,11,53,13.80
2016,09,22,11,54,13.80
2016,09,22,11,55,13.80
2016,09,22,11,56,13.80
2016,09,22,11,57,13.70
2016,09,22,11,58,13.60
2016,09,22,11,59,13.50
2016,09,22,12,00,13.40
2016,09,22,12,01,13.30
2016,09,22,12,02,13.20
2016,09,22,12,03,13.00
2016,09,22,12,04,13.00
2016,09,22,12,05,12.90
2016,09,22,12,06,12.70
2016,09,22,12,07,12.60
2016,09,22,12,08,12.60
2016,09,22,12,09,12.60
2016,09,22,12,10,12.70
2016,09,22,12,11,12.70
2016,09,22,12,12,12.80
2016,09,22,12,13,12.80
2016,09,22,12,14,12.90
2016,09,22,12,15,13.00
2016,09,22,12,16,13.00
2016,09,22,12,17,13.10
2016,09,22,12,18,13.10
2016,09,22,12,19,13.00
2016,09,22,12,20,12.90
2016,09,22,12,21,12.90
2016,09,22,12,22,12.90
2016,09,22,12,23,13.00
2016,09,22,12,24,13.10
2016,09,22,12,25,13.20
2016,09,22,12,26,13.20
2016,09,22,12,27,13.20
2016,09,22,12,28,13.30
2016,09,22,12,29,13.30
2016,09,22,12,30,13.40
2016,09,22,12,31,13.40
2016,09,22,12,32,13.50
2016,09,22,12,33,13.60
2016,09,22,12,34,13.60
2016,09,22,12,35,13.60
2016,09,22,12,36,13.50
2016,09,22,12,37,13.50
2016,09,22,12,38,13.40
2016,09,22,12,39,13.40
2016,09,22,12,40,13.40
2016,09,22,12,41,13.40
2016,09,22,12,42,13.40
2016,09,22,12,43,13.50
2016,09,22,12,44,13.60
2016,09,22,12,45,13.60
2016,09,22,12,46,13.70
2016,09,22,12,47,13.70
2016,09,22,12,48,13.80
2016,09,22,12,49,13.80
2016,09,22,12,50,14.00
2016,09,22,12,51,14.00
2016,09,22,12,52,14.10
2016,09,22,12,53,14.10
2016,09,22,12,54,14.10
2016,09,22,12,55,14.10
2016,09,22,12,56,14.00
2016,09,22,12,57,13.90
2016,09,22,12,58,13.80
2016,09,22,12,59,13.80
2016,09,22,13,00,13.80
2016,09,22,13,01,13.80
2016,09,22,13,02,13.80
2016,09,22,13,03,13.90
2016,09,22,13,04,13.90
2016,09,22,13,05,13.90
2016,09,22,13,06,14.00
2016,09,22,13,07,14.10
2016,09,22,13,08,14.10
2016,09,22,13,09,14.20
2016,09,22,13,10,14.30
2016,09,22,13,11,14.40
2016,09,22,13,12,14.60
2016,09,22,13,13,14.80
2016,09,22,13,14,15.00
2016,09,22,13,15,15.20
2016,09,22,13,16,15.40
2016,09,22,13,17,15.60
2016,09,22,13,18,15.80
2016,09,22,13,19,16.10
2016,09,22,13,20,16.30
2016,09,22,13,21,16.40
2016,09,22,13,22,16.60
2016,09,22,13,23,16.80
2016,09,22,13,24,16.90
2016,09,22,13,25,16.90
2016,09,22,13,26,17.00
2016,09,22,13,27,17.10
2016,09,22,13,28,17.10
2016,09,22,13,29,17.00
2016,09,22,13,30,17.00
2016,09,22,13,31,17.10
2016,09,22,13,32,17.20
2016,09,22,13,33,17.30
2016,09,22,13,34,17.30
2016,09,22,13,35,17.40
2016,09,22,13,36,17.40
2016,09,22,13,37,17.40
2016,09,22,13,38,17.40
2016,09,22,13,39,17.50
2016,09,22,13,40,17.60
2016,09,22,13,41,17.80
2016,09,22,13,42,17.90
2016,09,22,13,43,18.10
2016,09,22,13,44,18.20
2016,09,22,13,45,18.30
2016,09,22,13,46,18.30
2016,09,22,13,47,18.30
2016,09,22,13,48,18.30
2016,09,22,13,49,18.30
2016,09,22,13,50,18.40
2016,09,22,13,51,18.50
2016,09,22,13,52,18.70
2016,09,22,13,53,18.70
2016,09,22,13,54,18.70
2016,09,22,13,55,18.60
2016,09,22,13,56,18.40
2016,09,22,13,57,18.40
2016,09,22,13,58,18.30
2016,09,22,13,59,18.20
2016,09,22,14,00,18.30
2016,09,22,14,01,18.40
2016,09,22,14,02,18.50
2016,09,22,14,03,18.50
2016,09,22,14,04,18.60
2016,09,22,14,05,18.60
2016,09,22,14,06,18.70
2016,09,22,14,07,18.70
2016,09,22,14,08,18.70
2016,09,22,14,09,18.80
2016,09,22,14,10,18.80
2016,09,22,14,11,18.70
2016,09,22,14,12,18.70
2016,09,22,14,13,18.70
2016,09,22,14,14,18.70
2016,09,22,14,15,18.60
2016,09,22,14,16,18.60
2016,09,22,14,17,18.60
2016,09,22,14,18,18.60
2016,09,22,14,19,18.50
2016,09,22,14,20,18.50
2016,09,22,14,21,18.30
2016,09,22,14,22,18.20
2016,09,22,14,23,18.20
2016,09,22,14,24,18.10
2016,09,22,14,25,18.10
2016,09,22,14,26,18.10
2016,09,22,14,27,18.10
2016,09,22,14,28,18.10
2016,09,22,14,29,18.10
2016,09,22,14,30,18.00
2016,09,22,14,31,17.90
2016,09,22,14,32,17.80
2016,09,22,14,33,17.70
2016,09,22,14,34,17.60
2016,09,22,14,35,17.60
2016,09,22,14,36,17.60
2016,09,22,14,37,17.60
2016,09,22,14,38,17.60
2016,09,22,14,39,17.60
2016,09,22,14,40,17.60
2016,09,22,14,41,17.70
2016,09,22,14,42,17.70
2016,09,22,14,43,17.70
2016,09,22,14,44,17.70
2016,09,22,14,45,17.80
2016,09,22,14,46,17.90
2016,09,22,14,47,18.00
2016,09,22,14,48,18.10
2016,09,22,14,49,18.20
2016,09,22,14,50,18.20
2016,09,22,14,51,18.30
2016,09,22,14,52,18.30
2016,09,22,14,53,18.30
2016,09,22,14,54,18.20
2016,09,22,14,55,18.20
2016,09,22,14,56,18.10
2016,09,22,14,57,18.00
2016,09,22,14,58,17.90
2016,09,22,14,59,17.80
2016,09,22,15,00,17.70
2016,09,22,15,01,17.60
2016,09,22,15,02,17.50
2016,09,22,15,03,17.40
2016,09,22,15,04,17.40
2016,09,22,15,05,17.50
2016,09,22,15,06,17.60
2016,09,22,15,07,17.70
2016,09,22,15,08,17.80
2016,09,22,15,09,17.90
2016,09,22,15,10,18.00
2016,09,22,15,11,18.00
2016,09,22,15,12,17.80
2016,09,22,15,13,17.80
2016,09,22,15,14,17.70
2016,09,22,15,15,17.80
2016,09,22,15,16,17.80
2016,09,22,15,17,17.90
2016,09,22,15,18,17.90
2016,09,22,15,19,17.90
2016,09,22,15,20,17.80
2016,09,22,15,21,17.80
2016,09,22,15,22,17.80
2016,09,22,15,23,17.90
2016,09,22,15,24,17.80
2016,09,22,15,25,17.80
2016,09,22,15,26,17.80
2016,09,22,15,27,17.80
2016,09,22,15,28,17.90
2016,09,22,15,29,18.00
2016,09,22,15,30,18.20
2016,09,22,15,31,18.30
2016,09,22,15,32,18.40
2016,09,22,15,33,18.30
2016,09,22,15,34,18.20
2016,09,22,15,35,18.20
2016,09,22,15,36,18.30
2016,09,22,15,37,18.30
2016,09,22,15,38,18.50
2016,09,22,15,39,18.60
2016,09,22,15,40,18.70
2016,09,22,15,41,18.70
2016,09,22,15,42,18.80
2016,09,22,15,43,18.80
2016,09,22,15,44,18.80
2016,09,22,15,45,18.80
2016,09,22,15,46,18.90
2016,09,22,15,47,18.90
2016,09,22,15,48,18.90
2016,09,22,15,49,18.90
2016,09,22,15,50,19.00
2016,09,22,15,51,19.00
2016,09,22,15,52,19.00
2016,09,22,15,53,19.00
2016,09,22,15,54,19.10
2016,09,22,15,55,19.10
2016,09,22,15,56,19.20
2016,09,22,15,57,19.20
2016,09,22,15,58,19.20
2016,09,22,15,59,19.10
2016,09,22,16,00,19.00
2016,09,22,16,01,19.00
2016,09,22,16,02,19.00
2016,09,22,16,03,19.10
2016,09,22,16,04,19.10
2016,09,22,16,05,19.10
2016,09,22,16,06,19.10
2016,09,22,16,07,19.10
2016,09,22,16,08,19.10
2016,09,22,16,09,19.10
2016,09,22,16,10,19.20
2016,09,22,16,11,19.20
2016,09,22,16,12,19.20
2016,09,22,16,13,19.20
2016,09,22,16,14,19.20
2016,09,22,16,15,19.20
2016,09,22,16,16,19.20
2016,09,22,16,17,19.20
2016,09,22,16,18,19.20
2016,09,22,16,19,19.10
2016,09,22,16,20,19.10
2016,09,22,16,21,19.10
2016,09,22,16,22,19.10
2016,09,22,16,23,19.10
2016,09,22,16,24,19.10
2016,09,22,16,25,19.10
2016,09,22,16,26,19.10
2016,09,22,16,27,19.00
2016,09,22,16,28,19.00
2016,09,22,16,29,18.90
2016,09,22,16,30,18.80
2016,09,22,16,31,18.70
2016,09,22,16,32,18.60
2016,09,22,16,33,18.50
2016,09,22,16,34,18.40
2016,09,22,16,35,18.30
2016,09,22,16,36,18.20
2016,09,22,16,37,18.20
2016,09,22,16,38,18.20
2016,09,22,16,39,18.30
2016,09,22,16,40,18.30
2016,09,22,16,41,18.30
2016,09,22,16,42,18.30
2016,09,22,16,43,18.20
2016,09,22,16,44,18.10
2016,09,22,16,45,18.00
2016,09,22,16,46,17.90
2016,09,22,16,47,17.90
2016,09,22,16,48,17.90
2016,09,22,16,49,17.90
2016,09,22,16,50,17.90
2016,09,22,16,51,18.00
2016,09,22,16,52,18.00
2016,09,22,16,53,18.10
2016,09,22,16,54,18.10
2016,09,22,16,55,18.20
2016,09,22,16,56,18.20
2016,09,22,16,57,18.20
2016,09,22,16,58,18.20
2016,09,22,16,59,18.10
2016,09,22,17,00,18.10
2016,09,22,17,01,18.20
2016,09,22,17,02,18.20
2016,09,22,17,03,18.20
2016,09,22,17,04,18.30
2016,09,22,17,05,18.30
2016,09,22,17,06,18.30
2016,09,22,17,07,18.20
2016,09,22,17,08,18.10
2016,09,22,17,09,18.10
2016,09,22,17,10,18.00
2016,09,22,17,11,18.00
2016,09,22,17,12,17.90
2016,09,22,17,13,17.90
2016,09,22,17,14,17.90
2016,09,22,17,15,17.90
2016,09,22,17,16,17.90
2016,09,22,17,17,17.90
2016,09,22,17,18,17.90
2016,09,22,17,19,17.90
2016,09,22,17,20,17.80
2016,09,22,17,21,17.70
2016,09,22,17,22,17.60
2016,09,22,17,23,17.60
2016,09,22,17,24,17.50
2016,09,22,17,25,17.40
2016,09,22,17,26,17.40
2016,09,22,17,27,17.40
2016,09,22,17,28,17.40
2016,09,22,17,29,17.40
2016,09,22,17,30,17.40
2016,09,22,17,31,17.30
2016,09,22,17,32,17.30
2016,09,22,17,33,17.20
2016,09,22,17,34,17.20
2016,09,22,17,35,17.10
2016,09,22,17,36,17.10
2016,09,22,17,37,17.10
2016,09,22,17,38,17.10
2016,09,22,17,39,17.10
2016,09,22,17,40,17.10
2016,09,22,17,41,17.20